User: anonymous
Location: Bowman Observatory
(41.0326°N, 73.6210°W)
Time: 16:30:23
(UTC-04:00)
Language:

Cosmos 2298 Rocket - Orbit

View from above orbital plane
View from above orbital plane
View from above satellite
View from above satellite

Ground track
Ground track

The orbit data is extracted from the following two-line orbital elements,

1 23432U 94083B   14209.22540394  .00000032  00000-0  21239-4 0  8954
2 23432 074.0322 066.9178 0005203 180.3621 322.8151 14.33271933 25142
Epoch (UTC): 28 July 2014 05:24:34
Eccentricity: 0.0005203
inclination: 74.0322°
perigee height: 777 km
apogee height: 784 km
right ascension of ascending node: 66.9178°
argument of perigee: 180.3621°
revolutions per day: 14.33271933
mean anomaly at epoch: 322.8151°
orbit number at epoch: 2514

The dashed part of the orbit path shows where the satellite is in the earth's shadow,  

DLR